www.pogodaiklimat.ru

Погода и климат >> Архив погоды >> Россия >> Магаданская область >> Усть-Бохапча


ПОГОДА в Усть-Бохапче

  • Прогноз погоды в Усть-Бохапче
  • Монитор погоды в Усть-Бохапче

АРХИВ ПОГОДЫ в Усть-Бохапче

Время (UTC), дата Ветер
(напр.,м/с)
 
Видим.   Явления Облачность Т
(С)
Тd
(С)
f
(%)
Тe
(С)
Тes
(С)
Комфортность P
(гПа)
Po
(гПа)
Тmin
(С)
Tmax
(С)
R
(мм)
R24
(мм)
S
(см)
09 14.04 ЮВ 1 50 км 3/0
[Ci]
-3.6 -8.6 68 -6 -6 1012.7 969.1 +3.8
12 14.04 штиль 0 50 км 1/0
[Ci fib]
-12.7 -13.7 92 -13 -13 1014.5 969.3
15 14.04 штиль 0 50 км ясно -16.7 -18.0 90 -17 -17 1015.0 969.1
18 14.04 ЮВ 2 50 км ясно -16.0 -17.2 90 -21 -21 1014.7 968.9
21 14.04 ЮВ 1 50 км ясно -12.1 -13.3 91 -14 -12 1013.9 968.8 -20.9 70
00 15.04 ЮЗ 2 50 км 3/0
[Ci fib]
-0.6 -11.8 42 -3 +3 1011.2 968.1
03 15.04 З 3 50 км 10/0
[Cs]
-1.6 -10.5 51 -6 -0 1011.9 968.6
06 15.04 СЗ 1 50 км 10/0
[Cs]
-1.0 -12.2 42 -2 +1 1012.1 968.9
09 15.04 В 2 50 км 4/0
[Ci fib]
-1.9 -11.1 49 -5 -5 1013.0 969.6 +0.5
12 15.04 ЮЗ 1 50 км ясно -15.1 -17.7 80 -18 -18 1016.5 970.8
15 15.04 ЮВ 1 50 км ясно -16.3 -18.3 84 -19 -19 1017.1 971.1
18 15.04 В 1 50 км ясно -10.1 -13.7 75 -12 -12 1016.6 971.7
21 15.04 ЮВ 1 50 км ясно -8.7 -13.4 69 -11 -9 1017.0 972.3 -18.3 70
00 16.04 ЮВ 3 50 км ясно -1.3 -9.8 52 -6 +1 1016.1 972.7
03 16.04 С 1 50 км 1/1 600 м
[Cu med, cong]
+1.6 -12.1 35 +1 +10 опасность
простуды
1015.1 972.2
06 16.04 З 1 50 км 3/0
[Ci fib]
+1.4 -13.6 32 +1 +5 1015.2 972.2
09 16.04 ЮЗ 1 50 км ясно -4.0 -13.2 49 -6 -6 1016.8 972.9 +2.6
12 16.04 ЮВ 1 50 км ясно -11.3 -14.4 78 -14 -14 1019.1 973.9
15 16.04 ЮВ 1 50 км ясно -13.7 -16.5 79 -16 -16 1019.8 974.2
18 16.04 Ю 1 50 км ясно -11.4 -14.3 79 -14 -14 1020.1 974.9
21 16.04 Ю 3 50 км 8/3 1000 м
[Sc Ac trans Ci fib]
-5.9 -11.8 63 -11 -10 1018.2 974.0 -16.4 70
00 17.04 Ю 4
{11}
50 км 8/8 1000 м
[Sc]
-1.3 -9.8 52 -6 -5 1015.8 972.4
03 17.04 ЮВ 5
{10}
50 км 8/4 1000 м
[Sc Ci fib]
+1.8 -9.2 44 -3 -1 1014.8 972.0
06 17.04 ЮВ 5
{11}
50 км 6/4 1000 м
[Sc Ci fib]
+3.5 -6.1 49 -1 0 1013.5 970.9
09 17.04 ЮВ 2 50 км 9/6 1000 м
[Sc Ac trans Ci fib]
+2.5 -7.1 49 0 0 1013.4 970.7 +4.2
12 17.04 Ю 3 50 км 9/6 1000 м
[Sc Ac trans]
+0.4 -9.6 47 -3 -3 1013.2 970.1
15 17.04 штиль 0 50 км 10/10 1000 м
[Sc]
+0.1 -10.8 44 -0 -0 1011.9 968.9
18 17.04 ЮВ 2 50 км 10/10 1000 м
[Sc]
-0.3 -8.7 53 -3 -3 1009.8 966.8
21 17.04 ЮВ 5-10
{11}
10 км слаб. ливневой снег 10/10 1000 м
[Cb cap]
-1.3 -3.9 82 -8 -8 1010.5 967.4 -1.3 0.0 69
00 18.04 ЮВ 6-10
{11}
50 км {ливн. осадки} 9/8 1000 м
[Sc Ci fib]
+1.4 -4.2 66 -4 -4 1009.9 967.2 -1.5
03 18.04 Ю 3
{10}
50 км 8/8 1000 м
[Sc diur, vesp]
+2.9 -6.9 48 -0 +1 1010.3 967.8
06 18.04 ЮЗ 3 50 км 4/4 1000 м
[Sc diur, vesp]
+3.6 -8.1 42 +1 +3 1010.8 968.4
09 18.04 ЮВ 2 50 км 3/3 1000 м
[Sc diur, vesp]
+1.5 -8.0 49 -1 -1 1013.1 970.2 +4.5 0.0
12 18.04 В 1 50 км 3/3 1000 м
[Sc Ci fib]
-2.8 -8.1 67 -5 -5 1016.0 972.4
15 18.04 Ю 2 50 км 10/1 1000 м
[Sc Cs]
-8.0 -10.9 80 -12 -12 1018.6 974.0
18 18.04 В 1 50 км 3/1 1000 м
[Sc Ci fib]
-9.7 -12.0 83 -12 -12 1020.2 975.2
21 18.04 ЮВ 2 50 км 9/0
[Ci fib]
-5.0 -10.3 66 -9 -7 1020.4 976.2 -11.3 69
00 19.04 ЮВ 2 50 км 10/3 1000 м
[Sc Ac trans Cs]
+0.4 -7.8 54 -3 0 1020.2 976.9
03 19.04 В 2 50 км 10/0
[As trans]
+1.8 -7.0 52 -1 +3 1018.9 975.8
06 19.04 С 2 50 км 10/6 1000 м
[Sc As trans]
+2.2 -7.5 49 -0 0 1019.0 976.0
09 19.04 штиль 0 50 км 10/5 1000 м
[Sc As op]
-0.3 -4.7 72 -1 -1 1020.1 976.7 +3.2
12 19.04 штиль 0 50 км 10/3 1000 м
[Sc As op]
-5.6 -6.8 91 -7 -7 1020.9 976.6
15 19.04 штиль 0 50 км 10/0
[Cs]
-7.8 -8.7 93 -9 -9 1020.7 976.1
18 19.04 З 1 н/о н/о -8.3 -9.2 93 -11 -11 1019.8 975.1
21 19.04 штиль 0 н/о н/о -6.0 -8.8 81 -7 -7 1018.8 974.5 -9.5 68
00 20.04 СЗ 3 10 км слаб. ливневой снег 10/6 600 м
[Cb cap As op]
+2.2 -1.7 75 -2 -1 1017.9 975.0
03 20.04 С 2 10 км слаб. ливневой дождь со снегом 10/10 600 м
[Cb cap]
+1.7 -0.9 83 -2 -2 1019.0 976.0
06 20.04 ЮЗ 1 50 км {ливн. осадки} 10/10 600 м
[Cb cap]
+2.8 -1.6 73 +1 +1 1019.1 976.2
09 20.04 С 2 50 км 10/10 600 м
[Sc]
+1.8 -2.8 71 -1 -1 1019.6 976.5 +3.3 0.0
12 20.04 СВ 2 50 км 10/10 600 м
[Sc]
+0.8 -2.9 76 -3 -3 1020.4 977.2
15 20.04 штиль 0 50 км 10/10 600 м
[Sc]
-1.9 -2.8 94 -3 -3 1020.8 977.1
18 20.04 ЮВ 1 50 км 10/10 600 м
[Sc]
-2.7 -3.9 91 -5 -5 1021.3 977.5
21 20.04 ЮВ 4 50 км 8/6 600 м
[Sc Ci fib]
-0.9 -5.8 69 -6 -6 1021.1 977.6 -2.8 68
00 21.04 ЮВ 4 50 км 6/6 1000 м
[Sc]
+1.0 -5.1 64 -4 -2 1020.0 976.8
03 21.04 ЮВ 3 50 км 6/3 1000 м
[Sc Ci fib]
+3.1 -5.3 54 -0 +5 1018.8 976.0
06 21.04 З 2 50 км 10/0
[Cs]
+3.8 -5.2 52 +2 +5 1017.6 975.0

 

Местоположение метеостанции Усть-Бохапча (Магаданская область, Россия): широта 62.10 долгота 150.60 высота над уровнем моря 349 м.

В архиве по умолчанию представлена погода в Усть-Бохапче за последнюю неделю. Архивные данные за месяц целиком и за предыдущие месяцы, начиная с января 2011 года, Вы можете получить, выбрав интересующий диапазон дат из раскрывающегося списка и нажав кнопку "Ввод!".


*Определитесь, кто Вы:
робот инопланетянин человек

Внимание! Время в таблицах - всемирное. Для получения местного времени необходимо прибавить поправку, которая равна 11 ч.

Смотрите также архив погоды в соседних городах и на ближайших метеорологических станциях:

Погода на Озере Джека Лондона (Магаданская область, Россия) (57 км)
Погода в Ягодной (Магаданская область, Россия) (69 км)
Погода в Совхозе Эльген (Магаданская область, Россия) (78 км)
Погода в Среднекане (Магаданская область, Россия) (96 км)
Погода в Усть-Омчуге (Магаданская область, Россия) (121 км)
Погода в Сеймчане (Магаданская область, Россия) (129 км)
Погода в Талой (Магаданская область, Россия) (140 км)
Погода в Сусумане (Магаданская область, Россия) (149 км)
Погода в Колымской (Магаданская область, Россия) (159 км)
Погода в Мадауне (Магаданская область, Россия) (167 км)

Пояснения к столбцам:

Ветер - указаны скорость ветра в м/с - средняя за 10 мин, порывы в срок и между сроками (в фигурных скобках) и направление, откуда дует ветер: С - северный, СВ - северо-восточный, В - восточный, ЮВ - юго-восточный, Ю - южный, ЮЗ - юго-западный, З - западный, СЗ - северо-западный.
Видимость - горизонтальная дальность видимости в метрах или километрах. При видимости от 1 до 10 км при отсутствии осадков обычно наблюдается дымка, при ухудшении видимости до 1 км и менее - туман. В сухую погоду видимость может ухудшаться дымом, пылью или мглою.
Явления - указаны атмосферные явления, наблюдавшиеся в срок или в последний час перед сроком; фигурными скобками обозначены явления, наблюдавшиеся между сроками (за 1-3 часа до срока); квадратными скобками обозначены град или гололедные отложения с указанием их диаметра в мм.
Облачность - указаны через наклонную черту общая и нижняя облачность в баллах и высота нижней границы облаков в метрах; квадратными скобками обозначены формы облаков: Ci - перистые, Cs - перисто-слоистые, Cc - перисто-кучевые, Ac - высококучевые, As - высокослоистые, Sc - слоисто-кучевые, Ns - слоисто-дождевые, Cu - кучевые, Cb - кучево-дождевые. Подробнее классификацию облаков см. в Атласе облаков (PDF).
T - Температура воздуха - температура, измеренная на высоте 2 м над землей.
Td - Температура точки росы - температура, при понижении до которой содержащийся в воздухе водяной пар достигнет насыщения.
f - Относительная влажность воздуха - влажноcть воздуха, измеренная на высоте 2 м над землей.
Te - Эффективная температура - температура, которую ощущает одетый по сезону человек в тени. Характеристика душности погоды. При расчете учитывается влияние влажности воздуха и скорости ветра на теплоощущения человека.
Tes - Эффективная температура на солнце - температура, которую ощущает человек, с поправкой на солнечный нагрев. Характеристика знойности погоды. Зависит от высоты солнца над горизонтом, облачности и скорости ветра. Ночью, в пасмурную погоду, а также при ветре 12 м/с и более поправка равна нулю.
P - Атмосферное давление - приведенное к уровню моря атмосферное давление.
Po - Атмосферное давление - измеренное на уровне метеостанции атмосферное давление.
Tmin - Минимальная температура - минимум температуры воздуха на высоте 2 м над землей.
Tmax - Максимальная температура - максимум температуры воздуха на высоте 2 м над землей.
R - Количество осадков - Количество выпавших осадков за период времени, мм. При наведении курсора мыши на число - период времени, за который выпало указанное количество осадков.
R24 - Количество осадков - Количество выпавших осадков за 24 часа, мм.
S - Снежный покров - Высота снежного покрова, см. При наведении курсора мыши на число - состояние снежного покрова и степень покрытия местности в баллах.